星链-35313(STARLINK-35313)

导读

STARLINK-35313是美国SpaceX公司星链(Starlink)星座中的一颗低轨互联网卫星,于2025年9月25日发射入轨。星链计划旨在近地轨道搭建全球卫星互联网星座,最终将部署超4万颗卫星,为全球提供高速低延迟宽带互联网服务,支持流媒体、远程通讯等多元场景。STARLINK-35313延续了星链卫星轻量化紧凑设计,依托SpaceX高频次低成本发射能力,进一步完善星座覆盖与服务能力。

Basic Information
目录编号:
65758
目录名称:
STARLINK-35313
国际标识:
2025-216AA
轨道中心:
EARTH
卫星名称:
星链-35313
卫星全名:
星链-35313(STARLINK-35313)
卫星状态:
在轨 (已飞行345 天)
发射日期:
2025-09-25 UTC
国别 :
美国 (US)
星等 :
--
Orbit Information
数据来源 国际轨道数据 AOE轨道数据
星历时间 2026-09-05T12:52:53+0800
8小时前
查看轨道信息
2026-09-03T22:00:00+0800
1天前
查看轨道信息
半长轴 6840.846km 6840.864km
偏心率 0.0001424 0.0001
轨道倾角 53.156° 53.157°
近地点辐角 106.005° 99.388°
升交点赤经 217.244° 224.818°
平近点角 254.111° 306.733°
近地点 461.734km 462.042km
远地点 463.684km 463.412km
周期 93.848分钟 93.848分钟
每日圈数 15.343982 15.343922
Detailed Information
固有亮度:
5
最大亮度:
2.5
卫星平台:
Starlink V1.0
覆盖范围:
全球
运营商:
太空探索技术公司
运营商所在国:
美国
制造商(研发单位):
太空探索技术公司
制造商所在国:
美国
使用方式:
暂无
Satellite Introduction
Starlink 计划是 SpaceX 推出的全球卫星互联网项目,通过发射低轨道卫星,为全球尤其是偏远地区提供高速、低延迟的互联网服务。自 2019 年起,Starlink 已部署数千颗卫星,旨在缩小全球数字鸿沟,推动互联网普及。该项目还为军事、航空等行业提供通信支持,带来广泛经济效益。
2D Orbit Map
3D Orbit Map
Orbit Altitude Analysis Chart
Orbit Inclination Analysis Chart
Orbit Comprehensive Analysis Chart
View Comprehensive Chart
Conjunction Data List
Event ID Objects TCA Miss Dist (km) Collision Risk Probability Collision Risk Index (CRI) Action
CDM_260907-071005-938206-575821
2026-09-07T
07:10:49+0000
0.526 km
远距离
1.229101E-4 高风险 0.77
CDM_260907-151206-421906-575821
2026-09-07T
15:12:12+0000
0.741 km
远距离
4.262628E-5 中风险 0.68
CDM_260906-192705-938206-575821
2026-09-06T
19:27:23+0000
0.823 km
远距离
3.300519E-5 中风险 0.65
CDM_260907-190405-878406-575821
2026-09-07T
19:04:22+0000
0.817 km
远距离
2.305171E-5 中风险 0.62
CDM_260908-001305-315306-575821
2026-09-08T
00:13:32+0000
1.593 km
极远距离
4.687941E-6 低风险 0.48
CDM_260907-150905-878406-575821
2026-09-07T
15:09:53+0000
1.362 km
极远距离
4.063672E-6 低风险 0.47
CDM_260907-133806-421906-575821
2026-09-07T
13:38:25+0000
1.675 km
极远距离
2.837651E-6 低风险 0.44
CDM_260906-060804-284006-575821
2026-09-06T
06:08:07+0000
2.881 km
极远距离
1.375345E-6 低风险 0.38
CDM_260907-025505-226906-575821
2026-09-07T
02:55:47+0000
2.851 km
极远距离
1.271056E-6 低风险 0.37
CDM_260907-053705-938206-575821
2026-09-07T
05:37:01+0000
2.507 km
极远距离
1.191307E-6 低风险 0.37